Showing default

CROCUBE, 62394

Orbit data source: Space-Track

CROCUBE, 62394 is a Croatian payload satellite in LEO that was launched on Sat, 21 Dec 2024 UTC via an FALCON 9 launch vehicle from the Air Force Western Test Range (AFWTR). Payload-class satellites include a variety of spacecraft equipped with specific instruments for various scientific and technological missions. These include communications satellites like Starlink; space stations such as the ISS; scientific satellites like the Hubble; Earth observation satellites from companies like Planet Labs, Umbra, and HawkEye 360; GPS; miniature CubeSats for education and research; and military/defense satellites.

Loading next visibility...
Identifier
62394, 2024-247T
Orbit
LEO
Country
Flag of HRHR / HRV
Related business
Manufacturer
SpaceManic
Mission
Operational Amateur Technology
Bus & Motor
CUBESAT 1U, Unknown motor
Mass
1 kg wet, 1 kg dry
Launch date (UTC)
2024-12-21 (1 year ago)
Launch vehicle
FALCON 9
Launch site
Air Force Western Test Range (AFWTR)
Object type
Payload
Rocket body
Debris
Shape & HBR
Box, 0.1 m
Radar Cross Section
0.015 m², Small (<0.1 m²)

Expand to show TLE details & history
Last TLE update: 2 days ago

TLE from 2 days ago
0 CROCUBE
1 62394U 24247T   26093.00483506  .00061621  00000-0  13546-2 0  9996
2 62394  44.9742 321.5870 0004821 230.0636 129.9829 15.43212573 71716
Epoch: 2026-04-03T00:06Z
TLE epoch observation values (Epoch: 2026-04-03T00:06:57.749Z)
Latitude
-0.00003°
Longitude
128.50116°
Altitude
438.743 km
Speed
7.649 km/s
True Right ascension
21h 26m 20s
True Declination
0° 00' 00"
Sunlit
Object was in daylight at epoch
Visualization orbit readout
Latitude
Unknown
Longitude
Unknown
Altitude
Unknown
Speed
Unknown
Apparent Right ascension
Unknown
Apparent Declination
Unknown
Sunlit
N/A
Visualization observer readout
Local Sidereal Time
18:22:22
Azimuth
Unknown
Elevation
Unknown
Doppler factor
Unknown
Orbital elements
Apogee altitude
441.546 km
Perigee altitude
434.973 km
Semi-major axis
6,816.397 km
Eccentricity
0.00048
Inclination
44.9742°
RAAN
321.587°
Arg. of periapsis
230.0636°
True anomaly
130.02521°
Mean anomaly
129.9829°
Eccentric anomaly
130.00406°
Mean motion
3.85666 °/min
Orbital period
93.35 mins
BSTAR
0.0013546
Loading maneuver chart data...
Computing Atmospheric mass density...
Loading historical data...
Loading historical data...
Loading historical data...
Loading historical data...
Loading historical data...
Loading historical data...
Loading historical data...

Documentation

Showing up to 5 results
|